Flag for Germany Weather past 2 weeks in Deggendorf, Bavaria, Germany

Now
43 °F

Light rain. Overcast.


Feels Like: 39 °F
Forecast: 39 / 53 °F
Wind: 6 mph from West

Location: Straubing

Current Time: Mar 30, 2015 at 9:54:25 AM

Latest Report: Mar 30, 2015 at 9:00 AM


Visibility: 9 mi

Pressure: 29.54 "Hg

Humidity: 91%

Dew point: 40 °F

Location of DeggendorfLocation

Historic Weather in Deggendorf — Graph

°F

Deggendorf temperature yesterday

Maximum temperature yesterday: 55 °F (at 12:00 PM)
Minimum temperature yesterday: 42 °F (at 1:00 AM)
Average temperature yesterday: 48 °F

Past Weeks' High & Low Weather Summary

 TemperatureHumidityPressure
High63 °F (Mar 17, 3:00 PM)100% (Mar 23, 6:00 AM)30.33 "Hg (Mar 23, 6:00 AM)
Low23 °F (Mar 21, 6:00 AM)30% (Mar 20, 5:00 PM)29.47 "Hg (Mar 30, 2:00 AM)
Average45 °F69%30.05 "Hg
* Reported Mar 15 7:00 AM — Mar 30 8:00 AM, Deggendorf, Weather by CustomWeather, © 2015

Note: Actual official high and low records may vary slightly from our data, if they occured in-between our weather recording intervals... More about our weather records

Advertising

Deggendorf weather history for previous 24 hours

 ConditionsComfort  
Time TempWeatherWind HumidityBarometerVisibility
8:00 AM
Mon, Mar 30
41 °FLight rain. Overcast.2 mph93%29.55 "Hg8 mi
7:00 AM41 °FLight rain. Overcast.3 mph93%29.57 "Hg11 mi
6:00 AM42 °FRain. Overcast.6 mph90%29.57 "Hg4 mi
4:00 AM48 °FRain. Overcast.12 mph87%29.47 "Hg2 mi
3:00 AM50 °FLight rain. Overcast.12 mph80%29.47 "Hg25 mi
2:00 AM51 °FLight rain. Overcast.13 mph74%29.47 "Hg43 mi
1:00 AM51 °FOvercast.13 mph74%29.50 "Hg43 mi
12:00 AM51 °FLight rain. Overcast.13 mph79%29.50 "Hg43 mi
10:00 PM
Sun, Mar 29
51 °FLight rain. Overcast.9 mph73%29.58 "Hg22 mi
9:00 PM51 °FOvercast.9 mph73%29.62 "Hg43 mi
8:00 PM50 °FOvercast.8 mph74%29.64 "Hg43 mi
7:00 PM50 °FDrizzle. Overcast.7 mph80%29.67 "Hg43 mi
6:00 PM49 °FLight rain. Haze.7 mph85%29.70 "Hg11 mi
4:00 PM51 °FLight rain. Overcast.6 mph83%29.72 "Hg8 mi
3:00 PM53 °FLight rain. Overcast.7 mph70%29.74 "Hg15 mi
2:00 PM54 °FOvercast.10 mph64%29.75 "Hg43 mi
1:00 PM54 °FOvercast.7 mph65%29.77 "Hg43 mi
12:00 PM55 °FOvercast.8 mph67%29.80 "Hg43 mi
11:00 AM53 °FOvercast.8 mph72%29.83 "Hg34 mi
10:00 AM50 °FOvercast.3 mph81%29.86 "Hg28 mi
9:00 AM46 °FOvercast.1 mph94%29.90 "Hg2 mi
Weather by CustomWeather, © 2015

See weather overviewHow to use our weather pages